{"data":{"norad_id":43577,"epoch":"2026-05-25T03:28:11.044992Z","epoch_age_seconds":72612,"freshness":"FRESH","line1":"1 43577U 18061J   26145.14457228  .00000226  00000+0  73614-4 0  9997","line2":"2 43577  86.3969  66.4024 0002057  84.5565 275.5865 14.34219782410114","mean_motion":14.34219782,"eccentricity":0.0002057,"inclination_deg":86.3969,"raan_deg":66.4024,"arg_perigee_deg":84.5565,"mean_anomaly_deg":275.5865,"bstar":7.3614e-5,"rev_number":41011,"period_min":100.40302177341,"perigee_km":776.1884479407,"apogee_km":779.13234298919,"semimajor_km":7155.7973954649,"source":"CELESTRAK","updated_at":"2026-05-25T13:38:14.813190Z"}}